When you browse on this site, cookies collect data to enhance your experience and personalize the content and advertising you see.
Visit our Privacy Policy to learn more. By continuing to use the site, you agree to this use of cookies and data.
  • In Latvia
  • List of Countries
  • For 7 days
  • Water Temperature
  • Satellite Maps
  • Weather Map
  • Weather Widgets
  • user-avatar
    Login

    Hourly Weather Elbasan

    Today, 25 May, Saturday

    Time Temperature Precipitation Wind Pressure Humidity
    00:00 +13°C° 0 mm 1 mps 733 mmHg 89%
    01:00 +13°C° 0 mm 1 mps 733 mmHg 90%
    02:00 +13°C° 0 mm 1 mps 733 mmHg 89%
    03:00 +13°C° 0 mm 1 mps 733 mmHg 88%
    04:00 +13°C° 0 mm 1 mps 734 mmHg 87%
    05:00 +14°C° 0 mm 1 mps 734 mmHg 81%
    06:00 +16°C° 0 mm 1 mps 734 mmHg 74%
    07:00 +19°C° 0 mm 1 mps 734 mmHg 68%
    08:00 +20°C° 0 mm 1 mps 735 mmHg 63%
    09:00 +20°C° 0 mm 2 mps 735 mmHg 58%
    10:00 +23°C° 0 mm 2 mps 735 mmHg 54%
    11:00 +23°C° 0 mm 2 mps 735 mmHg 53%
    12:00 +24°C° 0 mm 3 mps 735 mmHg 52%
    13:00 +24°C° 0 mm 3 mps 735 mmHg 51%
    14:00 +24°C° 0 mm 3 mps 735 mmHg 54%
    15:00 +22°C° 0 mm 3 mps 735 mmHg 57%
    16:00 +22°C° 0 mm 3 mps 735 mmHg 60%
    17:00 +20°C° 0 mm 2 mps 735 mmHg 69%
    18:00 +19°C° 0 mm 1 mps 735 mmHg 78%
    19:00 +16°C° 0 mm 0 mps 734 mmHg 86%
    20:00 +16°C° 0 mm 1 mps 735 mmHg 86%
    21:00 +16°C° 0 mm 1 mps 735 mmHg 87%
    22:00 +15°C° 0 mm 1 mps 735 mmHg 87%
    23:00 +15°C° 0 mm 1 mps 735 mmHg 86%

    Tomorrow, 26 May, Sunday

    Time Temperature Precipitation Wind Pressure Humidity
    00:00 +15°C° 0 mm 1 mps 735 mmHg 84%
    01:00 +15°C° 0 mm 1 mps 736 mmHg 83%
    02:00 +15°C° 0 mm 1 mps 735 mmHg 82%
    03:00 +15°C° 0 mm 1 mps 735 mmHg 80%
    04:00 +15°C° 0 mm 1 mps 735 mmHg 79%
    05:00 +16°C° 0 mm 1 mps 735 mmHg 73%
    06:00 +19°C° 0 mm 1 mps 735 mmHg 67%
    07:00 +21°C° 0 mm 1 mps 735 mmHg 61%
    08:00 +23°C° 0 mm 1 mps 735 mmHg 54%
    09:00 +25°C° 0 mm 1 mps 735 mmHg 47%
    10:00 +25°C° 0 mm 0 mps 735 mmHg 41%
    11:00 +27°C° 0 mm 1 mps 735 mmHg 41%
    12:00 +28°C° 0 mm 2 mps 735 mmHg 40%
    13:00 +28°C° 0 mm 2 mps 735 mmHg 40%
    14:00 +27°C° 0 mm 2 mps 735 mmHg 45%
    15:00 +26°C° 0 mm 3 mps 734 mmHg 51%
    16:00 +25°C° 0 mm 3 mps 734 mmHg 56%
    17:00 +24°C° 0 mm 2 mps 734 mmHg 62%
    18:00 +22°C° 0 mm 1 mps 734 mmHg 68%
    19:00 +21°C° 0 mm 1 mps 734 mmHg 73%
    20:00 +21°C° 0 mm 1 mps 734 mmHg 73%
    21:00 +21°C° 0 mm 1 mps 734 mmHg 73%
    22:00 +20°C° 0 mm 1 mps 735 mmHg 73%
    23:00 +20°C° 0 mm 1 mps 734 mmHg 74%

    Day after tomorrow, 27 May, Monday

    Time Temperature Precipitation Wind Pressure Humidity
    00:00 +19°C° 0 mm 2 mps 734 mmHg 75%
    01:00 +19°C° 0 mm 2 mps 734 mmHg 76%
    02:00 +19°C° 0 mm 2 mps 734 mmHg 77%
    03:00 +18°C° 0 mm 2 mps 734 mmHg 77%
    04:00 +18°C° 0 mm 2 mps 733 mmHg 77%
    05:00 +19°C° 0 mm 2 mps 733 mmHg 76%
    06:00 +20°C° 0 mm 2 mps 734 mmHg 75%
    07:00 +21°C° 0 mm 2 mps 734 mmHg 74%
    08:00 +23°C° 0 mm 2 mps 734 mmHg 71%
    09:00 +24°C° 0 mm 2 mps 734 mmHg 68%
    10:00 +25°C° 0 mm 2 mps 733 mmHg 64%
    11:00 +26°C° 0.3 mm 2 mps 733 mmHg 63%
    12:00 +26°C° 0.3 mm 3 mps 733 mmHg 62%
    13:00 +27°C° 0.3 mm 3 mps 733 mmHg 60%
    14:00 +28°C° 0 mm 3 mps 733 mmHg 57%
    15:00 +28°C° 0 mm 3 mps 732 mmHg 53%
    16:00 +29°C° 0 mm 3 mps 732 mmHg 50%
    17:00 +27°C° 0.1 mm 2 mps 732 mmHg 59%
    18:00 +24°C° 0.1 mm 2 mps 732 mmHg 69%
    19:00 +22°C° 0.1 mm 1 mps 731 mmHg 78%
    20:00 +21°C° 0 mm 1 mps 732 mmHg 79%
    21:00 +21°C° 0 mm 1 mps 732 mmHg 81%
    22:00 +19°C° 0 mm 2 mps 732 mmHg 82%
    23:00 +18°C° 0 mm 2 mps 732 mmHg 82%

    28 May, Tuesday

    Time Temperature Precipitation Wind Pressure Humidity
    00:00 +18°C° 0 mm 2 mps 732 mmHg 82%
    01:00 +18°C° 0 mm 2 mps 732 mmHg 82%
    02:00 +17°C° 0 mm 2 mps 731 mmHg 82%
    03:00 +17°C° 0 mm 2 mps 731 mmHg 82%
    04:00 +16°C° 0 mm 2 mps 731 mmHg 82%
    05:00 +18°C° 0 mm 2 mps 731 mmHg 77%
    06:00 +20°C° 0 mm 2 mps 731 mmHg 72%
    07:00 +21°C° 0 mm 2 mps 731 mmHg 67%
    08:00 +22°C° 0.1 mm 3 mps 731 mmHg 61%
    09:00 +24°C° 0.1 mm 3 mps 732 mmHg 56%
    10:00 +26°C° 0.1 mm 4 mps 732 mmHg 51%
    11:00 +26°C° 0.2 mm 4 mps 731 mmHg 52%
    12:00 +26°C° 0.2 mm 4 mps 731 mmHg 53%
    13:00 +26°C° 0.2 mm 5 mps 731 mmHg 54%
    14:00 +25°C° 0.8 mm 4 mps 731 mmHg 58%
    15:00 +23°C° 0.8 mm 4 mps 731 mmHg 62%
    16:00 +23°C° 0.8 mm 4 mps 731 mmHg 66%
    17:00 +21°C° 0.6 mm 3 mps 731 mmHg 73%
    18:00 +20°C° 0.6 mm 2 mps 731 mmHg 79%
    19:00 +18°C° 0.6 mm 2 mps 731 mmHg 86%
    20:00 +18°C° 0.1 mm 1 mps 732 mmHg 87%
    21:00 +18°C° 0.1 mm 1 mps 732 mmHg 89%
    22:00 +16°C° 0.1 mm 1 mps 732 mmHg 90%
    23:00 +16°C° 0 mm 1 mps 732 mmHg 90%

    29 May, Wednesday

    Time Temperature Precipitation Wind Pressure Humidity
    00:00 +16°C° 0 mm 1 mps 732 mmHg 89%
    01:00 +16°C° 0 mm 1 mps 732 mmHg 89%
    02:00 +16°C° 0 mm 2 mps 732 mmHg 89%
    03:00 +16°C° 0 mm 2 mps 732 mmHg 89%
    04:00 +15°C° 0 mm 2 mps 732 mmHg 88%
    05:00 +17°C° 0 mm 2 mps 733 mmHg 84%
    06:00 +18°C° 0 mm 2 mps 733 mmHg 80%
    07:00 +19°C° 0 mm 2 mps 734 mmHg 75%
    08:00 +21°C° 0.3 mm 2 mps 734 mmHg 71%
    09:00 +22°C° 0.3 mm 3 mps 734 mmHg 68%
    10:00 +24°C° 0.3 mm 3 mps 734 mmHg 64%
    11:00 +24°C° 0.5 mm 3 mps 734 mmHg 64%
    12:00 +23°C° 0.5 mm 4 mps 734 mmHg 64%
    13:00 +25°C° 0.5 mm 4 mps 734 mmHg 64%
    14:00 +23°C° 0.4 mm 4 mps 735 mmHg 65%
    15:00 +23°C° 0.4 mm 4 mps 735 mmHg 67%
    16:00 +22°C° 0.4 mm 3 mps 735 mmHg 68%
    17:00 +21°C° 0.1 mm 2 mps 735 mmHg 72%
    18:00 +21°C° 0.1 mm 1 mps 735 mmHg 77%
    19:00 +19°C° 0.1 mm 1 mps 735 mmHg 81%
    20:00 +19°C° 0 mm 1 mps 736 mmHg 81%
    21:00 +18°C° 0 mm 1 mps 736 mmHg 82%
    22:00 +18°C° 0 mm 1 mps 736 mmHg 82%
    23:00 +18°C° 0 mm 1 mps 736 mmHg 81%

    30 May, Thursday

    Time Temperature Precipitation Wind Pressure Humidity
    00:00 +16°C° 0 mm 1 mps 736 mmHg 81%
    01:00 +16°C° 0 mm 1 mps 736 mmHg 80%
    02:00 +16°C° 0 mm 1 mps 736 mmHg 80%
    03:00 +16°C° 0 mm 1 mps 736 mmHg 80%
    04:00 +16°C° 0 mm 1 mps 736 mmHg 79%
    05:00 +18°C° 0 mm 1 mps 737 mmHg 74%
    06:00 +20°C° 0 mm 1 mps 737 mmHg 70%
    07:00 +19°C° 0 mm 0 mps 737 mmHg 65%
    08:00 +23°C° 0 mm 1 mps 737 mmHg 61%
    09:00 +24°C° 0 mm 1 mps 737 mmHg 57%
    10:00 +25°C° 0 mm 2 mps 737 mmHg 52%
    11:00 +26°C° 0.1 mm 2 mps 737 mmHg 53%
    12:00 +26°C° 0.1 mm 2 mps 737 mmHg 53%
    13:00 +26°C° 0.1 mm 3 mps 737 mmHg 53%
    14:00 +26°C° 0.4 mm 3 mps 737 mmHg 57%
    15:00 +25°C° 0.4 mm 3 mps 737 mmHg 61%
    16:00 +25°C° 0.4 mm 3 mps 736 mmHg 65%
    17:00 +23°C° 0.2 mm 2 mps 736 mmHg 72%
    18:00 +21°C° 0.2 mm 1 mps 736 mmHg 78%
    19:00 +20°C° 0.2 mm 1 mps 736 mmHg 84%
    20:00 +17°C° 0 mm 0 mps 736 mmHg 86%
    21:00 +17°C° 0 mm 0 mps 736 mmHg 88%
    22:00 +16°C° 0 mm 0 mps 737 mmHg 90%
    23:00 +16°C° 0 mm 0 mps 736 mmHg 90%
    Show more